Regional Weather Roundup
Issued by NWS New Orleans/Baton Rouge, LA

Home | Current Version | Previous Version | Text Only | Print | Product List | Glossary On
Versions: 1 2 3 4 5 6 7 8 9 10 11 12 13 14 15 16 17 18 19 20 21 22 23 24 25 26 27 28 29 30 31 32 33 34 35 36 37 38 39 40 41 42 43 44 45 46 47 48 49 50
000
ASUS44 KLIX 260408
RWRLIX
NEW ORLEANS REGIONAL WEATHER ROUNDUP
NATIONAL WEATHER SERVICE NEW ORLEANS LA
1100 PM CDT SAT APR 25 2015

NOTE: "FAIR" INDICATES FEW OR NO CLOUDS BELOW 12,000 FEET WITH NO
      SIGNIFICANT WEATHER AND/OR OBSTRUCTIONS TO VISIBILITY.
      SKY/WX - SKY CONDITION AND SIGNIFICANT WEATHER.
      TMP - AIR TEMPERATURE.     DP    - DEWPOINT TEMPERATURE.
      RH  - RELATIVE HUMIDITY.   PRES  - PRESSURE.
      HI  - HEAT INDEX.          WCI   - WIND CHILL INDEX.

*  THESE STATIONS ARE NOT NWS OR FAA STATIONS AND ARE NOT UNDER
   NWS QUALITY CONTROL.

LAZ038-040-048-061>063-065>067-069-260500-
SOUTHEAST LOUISIANA

CITY           SKY/WX    TMP DP  RH WIND       PRES   REMARKS
N.O. AUDUBON     N/A     70  70 100 MISG        N/A
N.O. INTL ARPT PTCLDY    69  65  86 CALM      29.75R
N.O. LAKEFRONT CLEAR     76  68  76 W8        29.75S
SLIDELL        CLEAR     68  67  96 CALM      29.74S
BATON ROUGE    CLEAR     70  67  90 SW7       29.75R
BOOTHVILLE     CLEAR     76  71  85 S7        29.76R
BELLE CHASSE   NOT AVBL
BOGALUSA*        N/A     65  62  90 CALM      29.76R FOG
GALLIANO*      CLEAR     74  70  88 S3        29.76R
NEW ROADS*       N/A     68  67  96 S3        29.75S
GONZALES*        N/A    N/A N/A N/A CALM      29.75S
HAMMOND*       CLEAR     66  64  94 CALM      29.76F
HOUMA*         CLEAR     71  69  96 S3        29.76R
PORT FOURCHON* CLEAR     77  72  83 S9        29.79R

$$

MSZ070-080>082-260500-
SOUTHERN MISSISSIPPI

CITY           SKY/WX    TMP DP  RH WIND       PRES   REMARKS
MCCOMB         CLEAR     66  65  96 CALM      29.75R
GULFPORT       CLEAR     67  65  93 CALM      29.75R
BILOXI         NOT AVBL
PASCAGOULA     CLEAR     64  64 100 CALM      29.75R

$$

COASTAL OBSERVATIONS
LAKE AND NEARSHORE STATIONS

STATION/POSITION TIME  TEMP    WIND        PRES    WAVE
                       AIR SEA DIR/SP/G            HT/PER
                 (UTC) (F)     (DEG/KT/KT) (MB)    (FT/S)
PASCAGOULA       0300   73     240/  5/  7 1006.7
WAVELAND YACHT   0300   71 74  270/  2/  3 1007.2
GRAND ISLE       0300   76 78  200/  7/ 11 1007.3
SOUTHWEST PASS   0300   76 67  180/ 16/ 19 1007.8
NEW CANAL        0312   73     260/  3/  5 1007.8
SHELL BEACH      0300   74 76  210/  8/  9 1006.4

OFFSHORE STATIONS

STATION/POSITION TIME  TEMP    WIND        PRES    WAVE
                       AIR SEA DIR/SP/G            HT/PER
                 (UTC) (F)     (DEG/KT/KT) (MB)    (FT/S)
64 S DAUPHIN ISL 0350   76 77  180/ 16/ 19 1007.4    5/ 5

$$




USA.gov is the U.S. government's official web portal to all federal, state and local government web resources and services.